Weather History for Opa Locka, FL

Change the Weather History Date:

Tuesday, February 26, 2013

  Actual Average Record
Temperature  
Mean Temperature 80 °F -  
Max Temperature 86 °F 76 °F 87 °F (1961)
Min Temperature 75 °F 58 °F 38 °F (1967)
Cooling Degree Days 16    
Growing Degree Days 30 (Base 50)    
Moisture  
Dew Point 71 °F    
Average Humidity 76    
Maximum Humidity 89    
Minimum Humidity 55    
Precipitation  
Precipitation 0.05 in - - ()
Sea Level Pressure  
Sea Level Pressure 29.87 in    
Wind  
Wind Speed 13 mph (South)    
Max Wind Speed 21 mph    
Max Gust Speed 30 mph    
Visibility 10 miles    
Events Rain    
Averages and records for this station are not official NWS values.
T = Trace of Precipitation, MM = Missing Value Source: NWS Daily Summary

Daily Weather History Graph

Daily Weather History Graph

Search for Another Location

Airport:

Trip Planner

Search our weather history database for the weather conditions in past years. The results will help you decide how hot, cold, wet, or windy it might be!

Date:

Astronomy

Feb. 26, 2013 Rise Set
Actual Time 6:46 AM EST 6:21 PM EST
Civil Twilight 6:23 AM EST 6:44 PM EST
Nautical Twilight 5:57 AM EST 7:11 PM EST
Astronomical Twilight 5:30 AM EST 7:37 PM EST
Moon 7:23 PM EST (2/26) 6:58 AM EST (2/26)
Length of Visible Light 12h 20m
Length of Day
11h 34m
Full, 99% of the Moon is Illuminated
Feb 26
Full
Mar 4
Last Quarter
Mar 11
New
Mar 19
First Quarter
Mar 27
Full

Hourly Weather History & Observations

Time (EST) Temp. Heat Index Dew Point Humidity Pressure Visibility Wind Dir Wind Speed Gust Speed Precip Events Conditions
12:53 AM 77.0 °F - 71.1 °F 82% 29.86 in 10.0 mi SSE 10.4 mph - N/A   Overcast
1:53 AM 77.0 °F - 70.0 °F 79% 29.84 in 10.0 mi South 13.8 mph 20.7 mph N/A   Mostly Cloudy
2:53 AM 77.0 °F - 71.1 °F 82% 29.82 in 10.0 mi South 18.4 mph 25.3 mph N/A   Partly Cloudy
3:28 AM 77.0 °F - 71.6 °F 83% 29.82 in 10.0 mi South 17.3 mph 24.2 mph N/A   Mostly Cloudy
3:53 AM 77.0 °F - 72.0 °F 84% 29.82 in 10.0 mi South 12.7 mph - N/A   Scattered Clouds
4:24 AM 77.0 °F - 71.6 °F 83% 29.82 in 10.0 mi South 13.8 mph - N/A   Mostly Cloudy
4:35 AM 77.0 °F - 71.6 °F 83% 29.82 in 10.0 mi South 10.4 mph 23.0 mph N/A   Scattered Clouds
4:53 AM 77.0 °F - 71.1 °F 82% 29.83 in 10.0 mi South 13.8 mph - N/A   Scattered Clouds
5:53 AM 77.0 °F - 70.0 °F 79% 29.83 in 10.0 mi South 12.7 mph - N/A   Mostly Cloudy
6:20 AM 75.2 °F - 71.6 °F 89% 29.83 in 7.0 mi South 10.4 mph - 0.05 in Rain Rain
6:51 AM 75.2 °F - 71.6 °F 89% 29.85 in 10.0 mi South 6.9 mph - 0.05 in   Overcast
6:53 AM 75.9 °F - 72.0 °F 87% 29.85 in 10.0 mi South 9.2 mph - 0.05 in   Overcast
7:04 AM 75.2 °F - 71.6 °F 89% 29.85 in 10.0 mi South 12.7 mph - N/A   Mostly Cloudy
7:53 AM 78.1 °F - 72.0 °F 81% 29.88 in 10.0 mi South 11.5 mph - N/A   Partly Cloudy
8:53 AM 81.0 °F 84.4 °F 70.0 °F 69% 29.88 in 10.0 mi South 16.1 mph - N/A   Scattered Clouds
9:53 AM 82.9 °F 86.5 °F 69.1 °F 63% 29.90 in 10.0 mi South 16.1 mph 24.2 mph N/A   Mostly Cloudy
10:53 AM 82.9 °F 87.0 °F 70.0 °F 65% 29.90 in 10.0 mi South 15.0 mph 20.7 mph N/A   Mostly Cloudy
11:53 AM 82.9 °F 86.5 °F 69.1 °F 63% 29.91 in 10.0 mi South 20.7 mph 24.2 mph N/A   Overcast
12:53 PM 82.9 °F 87.5 °F 71.1 °F 67% 29.90 in 10.0 mi South 15.0 mph - 0.00 in Rain Light Rain
1:53 PM 84.9 °F 88.2 °F 68.0 °F 57% 29.87 in 10.0 mi SSW 16.1 mph - N/A   Mostly Cloudy
2:53 PM 86.0 °F 89.4 °F 68.0 °F 55% 29.85 in 10.0 mi SSW 20.7 mph 29.9 mph N/A   Mostly Cloudy
3:53 PM 84.0 °F 86.5 °F 66.9 °F 56% 29.85 in 10.0 mi SW 19.6 mph 27.6 mph N/A   Mostly Cloudy
4:53 PM 82.9 °F 86.5 °F 69.1 °F 63% 29.86 in 10.0 mi SW 13.8 mph 26.5 mph N/A   Mostly Cloudy
5:53 PM 82.0 °F 85.9 °F 70.0 °F 67% 29.87 in 10.0 mi WSW 9.2 mph - N/A   Mostly Cloudy
6:53 PM 80.1 °F 83.2 °F 70.0 °F 71% 29.88 in 10.0 mi WSW 10.4 mph - N/A   Clear
7:53 PM 80.1 °F 83.2 °F 70.0 °F 71% 29.90 in 10.0 mi SSW 8.1 mph - N/A   Scattered Clouds
8:53 PM 78.1 °F - 72.0 °F 81% 29.91 in 10.0 mi South 10.4 mph - N/A   Clear
9:53 PM 77.0 °F - 72.0 °F 84% 29.92 in 10.0 mi South 8.1 mph - N/A   Clear
10:53 PM 78.1 °F - 73.0 °F 84% 29.92 in 10.0 mi SSW 9.2 mph - N/A   Mostly Cloudy
11:53 PM 78.1 °F - 72.0 °F 81% 29.91 in 10.0 mi SSW 9.2 mph - N/A   Scattered Clouds